Showing default

METEOSAT 11 (MSG 4), 40732

Orbit data source: Space-Track

METEOSAT 11 (MSG 4), 40732 is a payload satellite owned by EUMETSAT (DE) in GEO that was launched on Wed, 15 Jul 2015 UTC via an ARIANE 5ECA launch vehicle from the French Guiana (FRGUI). Payload-class satellites include a variety of spacecraft equipped with specific instruments for various scientific and technological missions. These include communications satellites like Starlink; space stations such as the ISS; scientific satellites like the Hubble; Earth observation satellites from companies like Planet Labs, Umbra, and HawkEye 360; GPS; miniature CubeSats for education and research; and military/defense satellites.

Not visible in the next 10 days
Identifier
40732, 2015-034A
Orbit
GEO
Country
Flag of UnknownUnknown / EUME
Related business
Manufacturer
Thales Alenia
Mission
Operational Civil Weather
Bus & Motor
MSG, S400 X2
Mass
2,043 kg wet, 1,000 kg dry
Launch date (UTC)
2015-07-15 (10 years ago)
Launch vehicle
ARIANE 5ECA
Launch site
French Guiana (FRGUI)
Object type
Payload
Rocket body
Debris
Shape & HBR
Cyl, 2.0 m
Radar Cross Section
9.802 m², Large (>1 m²)

Expand to show TLE details & history
Last TLE update: 2 days ago

TLE from 2 days ago
0 METEOSAT 11 (MSG 4)
1 40732U 15034A   25306.25450715  .00000076  00000-0  00000-0 0  9997
2 40732   2.6325  72.0936 0000616  95.0300 335.6289  1.00268039  4945
Epoch: 2025-11-02T06:06Z
TLE epoch observation values (Epoch: 2025-11-02T06:06:29.417Z)
Latitude
2.46496°
Longitude
9.2972°
Altitude
35,784.496 km
Speed
3.075 km/s
True Right ascension
09h 30m 46s
True Declination
2° 27' 45"
Sunlit
Object was in daylight at epoch
Visualization orbit readout
Latitude
Unknown
Longitude
Unknown
Altitude
Unknown
Speed
Unknown
Apparent Right ascension
Unknown
Apparent Declination
Unknown
Sunlit
N/A
Visualization observer readout
Local Sidereal Time
15:02:56
Azimuth
Unknown
Elevation
Unknown
Doppler factor
Unknown
Orbital elements
Apogee altitude
35,791.31 km
Perigee altitude
35,786.115 km
Semi-major axis
42,166.849 km
Eccentricity
0.00006
Inclination
2.6325°
RAAN
72.0936°
Arg. of periapsis
95.03°
True anomaly
335.62599°
Mean anomaly
335.6289°
Eccentric anomaly
335.62744°
Mean motion
0.25066 °/min
Orbital period
1,436.2 mins
BSTAR
0
Loading maneuver chart data...
Computing Atmospheric mass density...
Loading historical data...
Loading historical data...
Loading historical data...
Loading historical data...
Loading historical data...
Loading historical data...
Loading historical data...

Documentation

Showing up to 5 results
|